Location: Newark
(54.8972°N, 99.8189°W)
Time: 00:27:54
(UTC+00:00)

A-11 Canister half - All Passes

Search period start: 13 November 2019 00:00
Search period end: 23 November 2019 00:00
Orbit: 1514 x 1686 km, 47.2° (Epoch: 11 November)

Date Brightness Start Highest point End Pass type
(mag) Time Alt. Az. Time Alt. Az. Time Alt. Az.
13 Nov - 00:37:33 10° S 00:43:47 18° SE 00:50:00 10° E visible
13 Nov - 02:37:27 10° SW 02:46:40 41° SSE 02:55:50 10° E visible
13 Nov - 04:40:45 10° WSW 04:50:35 56° S 05:00:15 10° ESE visible
13 Nov - 06:45:07 10° W 06:54:37 47° SSW 07:03:52 10° SE night (unlit)
13 Nov - 08:50:21 10° W 08:57:47 24° SW 09:05:04 10° S night (unlit)
14 Nov - 00:15:06 10° SSE 00:20:59 17° SE 00:26:52 10° E visible
14 Nov - 02:14:39 10° SW 02:23:48 40° SSE 02:32:54 10° E visible
14 Nov - 04:17:50 10° WSW 04:27:40 56° S 04:37:21 10° E visible
14 Nov - 06:22:11 10° W 06:31:44 48° SSW 06:41:03 10° SE visible
14 Nov - 08:27:19 10° W 08:34:59 26° SW 08:42:28 10° S night (unlit)
14 Nov - 23:52:42 10° SSE 23:58:12 16° SE 00:03:41 10° E visible
15 Nov - 01:51:53 10° SSW 02:00:56 39° SSE 02:09:58 10° E visible
15 Nov - 03:54:56 10° WSW 04:04:46 56° S 04:14:28 10° E visible
15 Nov - 05:59:15 10° W 06:08:51 49° SSW 06:18:13 10° SE visible
15 Nov - 08:04:18 10° W 08:12:10 27° SW 08:19:51 10° S night (unlit)
15 Nov - 23:30:22 10° SSE 23:35:24 15° SE 23:40:28 10° E visible
16 Nov - 01:29:06 10° SSW 01:38:04 38° SSE 01:47:02 10° E visible
16 Nov - 03:32:03 10° WSW 03:41:51 55° S 03:51:33 10° E visible
16 Nov - 05:36:19 10° W 05:45:57 50° SSW 05:55:24 10° SE visible
16 Nov - 07:41:17 10° W 07:49:20 28° SW 07:57:13 10° SSE night (unlit)
16 Nov - 23:08:06 10° SSE 23:12:38 14° SE 23:17:09 10° E visible
17 Nov - 01:06:20 10° SSW 01:15:12 36° SSE 01:24:05 10° E visible
17 Nov - 03:09:09 10° WSW 03:18:57 55° S 03:28:39 10° E visible
17 Nov - 05:13:23 10° W 05:23:04 51° SSW 05:32:34 10° SE visible
17 Nov - 07:18:17 10° W 07:26:31 30° SW 07:34:33 10° SSE night (unlit)
17 Nov - 22:45:57 10° SSE 22:49:51 13° SE 22:53:46 10° E daylight
18 Nov - 00:43:35 10° SSW 00:52:20 35° SE 01:01:07 10° E visible
18 Nov - 02:46:17 10° WSW 02:56:02 54° S 03:05:45 10° E visible
18 Nov - 04:50:27 10° W 05:00:10 52° SSW 05:09:43 10° ESE visible
18 Nov - 06:55:17 10° W 07:03:40 31° SW 07:11:54 10° SSE night (unlit)
18 Nov - 22:23:58 10° SE 22:27:05 12° ESE 22:30:13 10° ESE daylight
19 Nov - 00:20:52 10° SSW 00:29:29 34° SE 00:38:10 10° E visible
19 Nov - 02:23:24 10° WSW 02:33:08 54° SSE 02:42:51 10° E visible
19 Nov - 04:27:31 10° W 04:37:15 53° SSW 04:46:51 10° ESE visible
19 Nov - 06:32:18 10° W 06:40:50 32° SW 06:49:12 10° SSE visible
19 Nov - 08:41:18 10° WSW 08:43:07 11° WSW 08:44:56 10° SW night (unlit)
19 Nov - 22:02:18 10° SE 22:04:19 11° ESE 22:06:20 10° ESE daylight
19 Nov - 23:58:09 10° SSW 00:06:38 32° SE 00:15:11 10° E visible
20 Nov - 02:00:31 10° WSW 02:10:14 53° SSE 02:19:55 10° E visible
20 Nov - 04:04:36 10° W 04:14:21 54° SSW 04:24:00 10° ESE visible
20 Nov - 06:09:19 10° W 06:17:59 34° SW 06:26:30 10° SSE visible
20 Nov - 08:17:20 10° WSW 08:20:21 12° WSW 08:23:22 10° SW night (unlit)
20 Nov - 23:35:26 10° SSW 23:43:47 31° SE 23:52:13 10° E visible
21 Nov - 01:37:39 10° WSW 01:47:19 52° SSE 01:57:01 10° E visible
21 Nov - 03:41:41 10° W 03:51:27 54° S 04:01:08 10° ESE visible
21 Nov - 05:46:21 10° W 05:55:08 35° SW 06:03:47 10° SSE visible
21 Nov - 07:53:45 10° W 07:57:35 13° SW 08:01:24 10° SSW night (unlit)
21 Nov - 23:12:46 10° SSW 23:20:57 30° SE 23:29:14 10° E visible
22 Nov - 01:14:48 10° SW 01:24:25 51° SSE 01:34:05 10° E visible
22 Nov - 03:18:45 10° W 03:28:33 55° S 03:38:15 10° ESE visible
22 Nov - 05:23:23 10° W 05:32:17 36° SSW 05:41:03 10° SSE visible
22 Nov - 07:30:21 10° W 07:34:49 14° SW 07:39:16 10° SSW night (unlit)
22 Nov - 22:50:06 10° SSW 22:58:07 28° SE 23:06:14 10° E visible
